This demonstration page uses our WeatherBlox Daily Observations layout. Learn more.

Left ArrowRight Arrow

Hourly Observations for February 17, 2018

Temp ( °F °C ) Dew Point ( °F °C ) Humidity (%) Winds ( mph kmh ) Pressure ( in mb ) Visibility ( mi km ) Precip ( " mm )
12:53 am 00:53 Clear 28 -2.2 15 -9.4 58 58 S 9 15 30.00 1016 10 16 0.00 0.00
1:53 am 01:53 Clear 28 -2.2 15 -9.4 58 58 S 9 15 29.98 1015 10 16 0.00 0.00
2:53 am 02:53 Clear 28 -2.2 15 -9.4 58 58 SSW 12 19 29.95 1014 10 16 0.00 0.00
3:53 am 03:53 Clear 27 -2.8 15 -9.4 61 61 SSW 13 20 29.92 1013 10 16 0.00 0.00
4:53 am 04:53 Clear 26 -3.3 15 -9.4 63 63 SSW 13 20 29.91 1013 10 16 0.00 0.00
5:53 am 05:53 Clear 23 -5 16 -8.9 74 74 WSW 9 15 29.96 1015 10 16 0.00 0.00
6:53 am 06:53 Clear 24 -4.4 17 -8.3 75 75 W 12 19 29.98 1015 10 16 0.00 0.00
7:53 am 07:53 Sunny 26 -3.3 18 -7.8 71 71 W 16 26 30.02 1017 10 16 0.00 0.00
8:53 am 08:53 Sunny 32 0 22 -5.6 66 66 NW 15 24 30.03 1017 10 16 0.00 0.00
9:53 am 09:53 Sunny 37 2.8 24 -4.4 59 59 NNW 17 28 30.06 1018 10 16 0.00 0.00
10:53 am 10:53 Sunny 42 5.6 24 -4.4 49 49 NNW 13 20 30.08 1019 10 16 0.00 0.00
11:53 am 11:53 Sunny 42 5.6 23 -5 47 47 NW 13 20 30.11 1020 10 16 0.00 0.00
12:53 pm 12:53 Sunny 45 7.2 23 -5 42 42 WNW 13 20 30.11 1020 10 16 0.00 0.00
1:53 pm 13:53 Sunny 47 8.3 21 -6.1 36 36 NW 16 26 30.10 1019 10 16 0.00 0.00
2:53 pm 14:53 Sunny 47 8.3 21 -6.1 36 36 WNW 16 26 30.11 1020 10 16 0.00 0.00
3:53 pm 15:53 Sunny 47 8.3 23 -5 39 39 WNW 13 20 30.12 1020 10 16 0.00 0.00
4:53 pm 16:53 Sunny 46 7.8 23 -5 40 40 NW 9 15 30.13 1020 10 16 0.00 0.00
5:53 pm 17:53 Sunny 42 5.6 25 -3.9 51 51 NNW 5 7 30.14 1021 10 16 0.00 0.00
6:53 pm 18:53 Clear 35 1.7 24 -4.4 64 64 E 6 9 30.14 1021 10 16 0.00 0.00
7:53 pm 19:53 Clear 36 2.2 23 -5 59 59 E 6 9 30.14 1021 10 16 0.00 0.00
8:53 pm 20:53 Clear 34 1.1 23 -5 64 64 ESE 8 13 30.12 1020 10 16 0.00 0.00
9:53 pm 21:53 Clear 34 1.1 22 -5.6 61 61 SSE 7 11 30.08 1019 10 16 0.00 0.00
10:53 pm 22:53 Clear 33 0.6 21 -6.1 61 61 SSE 9 15 30.06 1018 10 16 0.00 0.00
11:53 pm 23:53 Clear 33 0.6 21 -6.1 61 61 SSE 14 22 30.01 1016 10 16 0.00 0.00

Powered by AerisWeather